Location: ???????
(55.4362°N, 38.1183°E)
Time: 20:14:18
(UTC+00:00)

M-CUBED/EXP-1 PRIME - Pass Details

Date: 06 December 2021
Orbit: 426 x 650 km, 101.7° (Epoch: 26 January)

Event Time Altitude Azimuth Distance (km) Brightness Sun altitude
Rises 03:11:48 0° 36° (NE) 2,989 ? -19.3°
Reaches altitude 10° 03:15:32 10° 67° (ENE) 2,056 ? -18.8°
Maximum altitude 03:17:13 12° 90° (E) 1,916 ? -18.6°
Drops below altitude 10° 03:18:53 10° 112° (ESE) 2,025 ? -18.3°
Sets 03:22:28 0° 144° (SE) 2,886 ? -17.8°
